Regional Weather Roundup
Issued by NWS Sterling, VA

Home | Current Version | Previous Version | Graphics & Text | Print | Product List | Glossary On
Versions: 1 2 3 4 5 6 7 8 9 10 11 12 13 14 15 16 17 18 19 20 21 22 23 24 25 26 27 28 29 30 31 32 33 34 35 36 37 38 39 40 41 42 43 44 45 46 47 48 49 50
000
ASUS41 KLWX 231511
RWRLWX

REGIONAL WEATHER ROUNDUP
NATIONAL WEATHER SERVICE BALTIMORE MD/WASHINGTON DC
1100 AM EDT TUE MAY 23 2017

Note: "FAIR" indicates few or no clouds below 12,000 feet
with no significant weather and/or obstructions to visibility.
 TC=TEMPERATURE CELSIUS

 * =Non NWS site. Station does not report precipitation (e.g. rain,
    snow, etc.), thunder, or fog.

DCZ001-MDZ009-015-VAZ040>042-051-053>054-231600-
WASHINGTON METRO

CITY           SKY/WX    TMP DP  RH WIND       PRES   REMARKS
WASHINGTON NAT CLOUDY    65  58  78 E8        29.96F
DULLES         CLOUDY    62  54  74 E6        29.96F
ANDREWS AFB    MOSUNNY   62  58  85 E8        29.94F
FT BELVOIR     CLOUDY    64  56  77 E3        29.95S
QUANTICO       CLOUDY    65  59  81 E12       29.96F
COLLEGE PARK*  CLOUDY    62  56  81 NE6       29.95F
LEESBURG*      CLOUDY    63  55  77 CALM      29.97F
MANASSAS*        N/A     64  56  75 VRB3      29.97S
GAITHERSBURG*  CLOUDY    62  55  77 VRB5      29.97F

$$

MDZ006>007-011-014-231600-
BALTIMORE METRO

CITY           SKY/WX    TMP DP  RH WIND       PRES   REMARKS
BWI AIRPORT    CLOUDY    63  56  78 E10       29.95F
MD SCIENCE CTR   N/A     65  54  67 MISG      29.96F
MARTIN STATE   CLOUDY    64  59  82 CALM      29.97F
ANNAPOLIS      CLOUDY    65  60  84 E6        29.95F
FORT MEADE*    CLOUDY    61  55  82 NE7       29.98F

$$

MDZ012-015-019>023-231600-
MARYLAND EASTERN SHORE

CITY           SKY/WX    TMP DP  RH WIND       PRES   REMARKS
OCEAN CITY     CLOUDY    59  58  96 NE10      29.96R FOG
SALISBURY      CLOUDY    63  59  87 E12       29.94S FOG
BAY BRIDGE AP* CLOUDY    64  59  82 NE3       29.96S
CAMBRIDGE*     CLOUDY    64  59  82 E8        29.95R
EASTON*        PTSUNNY   66  59  77 E7        30.00R

$$

MDZ017>025-231600-
SOUTHERN MARYLAND

CITY           SKY/WX    TMP DP  RH WIND       PRES   REMARKS
PATUXENT RIVER CLOUDY    65  62  90 E10       29.93F
ST INIGOES     CLOUDY    66  61  84 E8        29.92F
LEONARDTOWN*   CLOUDY    63  59  88 E7        29.96S

$$

MDZ003>005-231600-
NORTH CENTRAL MARYLAND

CITY           SKY/WX    TMP DP  RH WIND       PRES   REMARKS
FREDERICK*     MOSUNNY   63  57  82 CALM      30.00S
HAGERSTOWN APT CLOUDY    65  47  52 NE7       29.96S
WESTMINSTER*   CLOUDY    64  50  59 E5        29.97R

$$

MDZ501>502-231600-
WESTERN MARYLAND

CITY           SKY/WX    TMP DP  RH WIND       PRES   REMARKS
OAKLAND*         N/A     52  41  66 E14G26    29.95F
CUMBERLAND*    CLOUDY    61  52  72 CALM      30.00F

$$

VAZ025>031-231600-
SHENANDOAH VALLEY

CITY           SKY/WX    TMP DP  RH WIND       PRES   REMARKS
WINCHESTER*    CLOUDY    59  48  67 CALM      29.97S
FRONT ROYAL*   PTSUNNY   61  52  72 CALM      29.96S
LURAY*         CLOUDY    61  52  72 N5        29.96S
NEW MARKET*    CLOUDY    61  49  64 N5        29.96S
STAUNTON*      CLOUDY    60  51  74 NE6       29.98S
WAYNESBORO*    CLOUDY    58  54  85 E6        29.96F

$$

WVZ021-048>050-054>055-231600-
EASTERN WEST VIRGINIA PANHANDLE

CITY           SKY/WX    TMP DP  RH WIND       PRES   REMARKS
MARTINSBURG    CLOUDY    63  48  58 NE6       29.96S
PETERSBURG*    CLOUDY    62  55  77 CALM      29.97S

$$

VAZ036>039-050-231600-
CENTRAL FOOTHILLS

CITY           SKY/WX    TMP DP  RH WIND       PRES   REMARKS
CHARLOTTESVILL LGT RAIN  63  56  78 N7        29.95S
CULPEPER*      LGT RAIN  63  55  75 NE6       29.97S
ORANGE*        LGT RAIN  61  54  77 NE7       29.95S
GORDONSVILLE*  CLOUDY    62  55  76 NE7       29.94F
WARRENTON*     CLOUDY    64  52  66 N5        29.96R

$$

VAZ055>057-231600-
NORTH AND CENTRAL PIEDMONT

CITY           SKY/WX    TMP DP  RH WIND       PRES   REMARKS
FREDERICKSBRG* CLOUDY    65  58  77 NE6       29.94F
STAFFORD*      CLOUDY    64  58  81 NE12      29.98F

$$

NCZ024-NYZ072-PAZ021-071-VAZ022-071-231600-
OTHER REGIONAL OBSERVATIONS

CITY           SKY/WX    TMP DP  RH WIND       PRES   REMARKS
NEW YORK CITY  CLOUDY    63  50  62 VRB3      29.99R
PHILADELPHIA   CLOUDY    64  55  72 NE9       29.96S
PITTSBURGH     PTSUNNY   65  48  54 SE12      29.90F
ROANOKE        CLOUDY    61  57  87 CALM      29.93F
RICHMOND       LGT RAIN  65  63  93 E12       29.91S FOG
RALEIGH        LGT RAIN  69  67  93 E6        29.85F FOG

$$

ANZ530>537-231600-
MARINE OBSERVATIONS

STATION/POSITION TIME  TEMP    WIND        PRES
                       AIR SEA DIR/SP/G
                 (UTC) (F)     (DEG/KT/KT) (MB)
THOMAS PT LIGHT  1500   62 65   50/  8/  9   N/A
BALT KEY BRIDGE  1448   62      80/  7/ 11 1014.4F
COVE POINT       1448   64     100/ 11/ 13 1014.5F
LEWISETTA        1448   65 69   90/ 11/ 13 1013.2F
SOLOMONS ISLAND  1448   64 67   70/  9/ 11   N/A
PINEY POINT      1448          110/  9/ 11   N/A

$$




USA.gov is the U.S. government's official web portal to all federal, state and local government web resources and services.